TimeMDT,TemperatureF,Dew PointF,Humidity,Sea Level PressureIn,VisibilityMPH,Wind Direction,Wind SpeedMPH,Gust SpeedMPH,PrecipitationIn,Events,Conditions,WindDirDegrees,DateUTC
12:10 AM,48.2,42.8,82,30.29,10.0,Calm,Calm,-,N/A,,Clear,0,2013-09-11 06:10:00
12:30 AM,46.4,41.0,81,30.29,10.0,Calm,Calm,-,N/A,,Clear,0,2013-09-11 06:30:00
12:50 AM,44.6,39.2,81,30.30,10.0,Calm,Calm,-,N/A,,Clear,0,2013-09-11 06:50:00
1:10 AM,42.8,39.2,87,30.30,10.0,Calm,Calm,-,N/A,,Clear,0,2013-09-11 07:10:00
1:30 AM,41.0,37.4,87,30.31,10.0,Calm,Calm,-,N/A,,Clear,0,2013-09-11 07:30:00
1:50 AM,41.0,37.4,87,30.31,10.0,Calm,Calm,-,N/A,,Clear,0,2013-09-11 07:50:00
2:10 AM,39.2,35.6,87,30.31,10.0,South,5.8,-,N/A,,Clear,180,2013-09-11 08:10:00
2:30 AM,39.2,35.6,87,30.31,10.0,Calm,Calm,-,N/A,,Clear,0,2013-09-11 08:30:00
2:50 AM,39.2,33.8,81,30.32,10.0,South,3.5,-,N/A,,Clear,170,2013-09-11 08:50:00
3:10 AM,37.4,33.8,87,30.32,10.0,Calm,Calm,-,N/A,,Clear,0,2013-09-11 09:10:00
3:30 AM,37.4,32.0,81,30.32,10.0,Calm,Calm,-,N/A,,Clear,0,2013-09-11 09:30:00
3:50 AM,35.6,32.0,87,30.32,10.0,Calm,Calm,-,N/A,,Clear,0,2013-09-11 09:50:00
4:10 AM,35.6,32.0,87,30.32,10.0,SSW,3.5,-,N/A,,Clear,200,2013-09-11 10:10:00
4:30 AM,35.6,32.0,87,30.33,10.0,Calm,Calm,-,N/A,,Clear,0,2013-09-11 10:30:00
4:50 AM,35.6,32.0,87,30.33,10.0,Calm,Calm,-,N/A,,Clear,0,2013-09-11 10:50:00
5:10 AM,33.8,30.2,87,30.33,10.0,Calm,Calm,-,N/A,,Clear,0,2013-09-11 11:10:00
5:30 AM,32.0,28.4,87,30.33,10.0,Calm,Calm,-,N/A,,Clear,0,2013-09-11 11:30:00
5:50 AM,32.0,28.4,87,30.33,10.0,SSW,3.5,-,N/A,,Clear,200,2013-09-11 11:50:00
6:10 AM,32.0,28.4,87,30.33,10.0,Calm,Calm,-,N/A,,Clear,0,2013-09-11 12:10:00
6:30 AM,32.0,28.4,87,30.34,10.0,Calm,Calm,-,N/A,,Clear,0,2013-09-11 12:30:00
6:50 AM,32.0,28.4,87,30.35,10.0,Calm,Calm,-,N/A,,Clear,0,2013-09-11 12:50:00
7:10 AM,32.0,28.4,87,30.35,10.0,Calm,Calm,-,N/A,,Clear,0,2013-09-11 13:10:00
7:30 AM,33.8,30.2,87,30.35,10.0,Calm,Calm,-,N/A,,Clear,0,2013-09-11 13:30:00
7:50 AM,37.4,32.0,81,30.36,10.0,Calm,Calm,-,N/A,,Clear,0,2013-09-11 13:50:00
8:10 AM,39.2,35.6,87,30.36,10.0,Calm,Calm,-,N/A,,Clear,0,2013-09-11 14:10:00
8:30 AM,41.0,37.4,87,30.36,10.0,Calm,Calm,-,N/A,,Clear,0,2013-09-11 14:30:00
8:50 AM,44.6,41.0,87,30.36,10.0,Calm,Calm,-,N/A,,Clear,0,2013-09-11 14:50:00
9:10 AM,48.2,42.8,82,30.36,10.0,Calm,Calm,-,N/A,,Clear,0,2013-09-11 15:10:00
9:30 AM,50.0,46.4,87,30.36,10.0,Calm,Calm,-,N/A,,Clear,0,2013-09-11 15:30:00
9:50 AM,55.4,50.0,82,30.36,10.0,North,3.5,-,N/A,,Clear,360,2013-09-11 15:50:00
10:10 AM,57.2,53.6,88,30.36,10.0,Calm,Calm,-,N/A,,Clear,0,2013-09-11 16:10:00
10:30 AM,60.8,55.4,82,30.36,10.0,NE,3.5,-,N/A,,Clear,50,2013-09-11 16:30:00
10:50 AM,62.6,59.0,88,30.35,10.0,NE,4.6,-,N/A,,Clear,50,2013-09-11 16:50:00
11:10 AM,66.2,62.6,88,30.35,10.0,ENE,5.8,-,N/A,,Clear,60,2013-09-11 17:10:00
11:30 AM,68.0,64.4,88,30.34,10.0,East,9.2,-,N/A,,Clear,80,2013-09-11 17:30:00
11:50 AM,69.8,64.4,83,30.34,10.0,NE,9.2,-,N/A,,Clear,50,2013-09-11 17:50:00
12:10 PM,71.6,66.2,83,30.33,10.0,ENE,10.4,19.6,N/A,,Clear,70,2013-09-11 18:10:00
12:30 PM,71.6,66.2,83,30.33,10.0,East,8.1,16.1,N/A,,Clear,100,2013-09-11 18:30:00
12:50 PM,71.6,66.2,83,30.33,10.0,East,9.2,17.3,N/A,,Clear,80,2013-09-11 18:50:00
1:10 PM,73.4,68.0,83,30.33,10.0,ENE,10.4,16.1,N/A,,Clear,70,2013-09-11 19:10:00
1:30 PM,73.4,68.0,83,30.32,10.0,East,6.9,-,N/A,,Clear,80,2013-09-11 19:30:00
1:50 PM,73.4,68.0,83,30.32,10.0,ENE,15.0,24.2,N/A,,Clear,70,2013-09-11 19:50:00
2:10 PM,75.2,69.8,83,30.31,10.0,SE,15.0,21.9,N/A,,Clear,130,2013-09-11 20:10:00
2:30 PM,75.2,71.6,89,30.31,10.0,ENE,10.4,20.7,N/A,,Clear,70,2013-09-11 20:30:00
2:50 PM,75.2,71.6,89,30.31,10.0,East,9.2,19.6,N/A,,Clear,80,2013-09-11 20:50:00
3:10 PM,75.2,71.6,89,30.31,10.0,NE,6.9,-,N/A,,Clear,50,2013-09-11 21:10:00
3:30 PM,75.2,71.6,89,30.30,10.0,NE,13.8,20.7,N/A,,Clear,50,2013-09-11 21:30:00
3:50 PM,77.0,71.6,83,30.30,10.0,East,11.5,17.3,N/A,,Clear,90,2013-09-11 21:50:00
4:10 PM,77.0,71.6,83,30.29,10.0,East,12.7,18.4,N/A,,Clear,80,2013-09-11 22:10:00
4:30 PM,77.0,71.6,83,30.29,10.0,ENE,12.7,19.6,N/A,,Clear,60,2013-09-11 22:30:00
4:50 PM,75.2,71.6,89,30.29,10.0,East,12.7,17.3,N/A,,Clear,100,2013-09-11 22:50:00
5:10 PM,75.2,71.6,89,30.29,10.0,ENE,9.2,-,N/A,,Clear,70,2013-09-11 23:10:00
5:30 PM,75.2,71.6,89,30.28,10.0,NNE,13.8,18.4,N/A,,Clear,30,2013-09-11 23:30:00
5:50 PM,75.2,69.8,83,30.29,10.0,ENE,10.4,-,N/A,,Clear,60,2013-09-11 23:50:00
6:10 PM,75.2,69.8,83,30.29,10.0,ENE,9.2,-,N/A,,Clear,70,2013-09-12 00:10:00
6:30 PM,73.4,68.0,83,30.29,10.0,East,8.1,-,N/A,,Clear,80,2013-09-12 00:30:00
6:50 PM,73.4,68.0,83,30.30,10.0,ENE,8.1,-,N/A,,Clear,70,2013-09-12 00:50:00
7:10 PM,71.6,66.2,83,30.31,10.0,ENE,8.1,-,N/A,,Clear,70,2013-09-12 01:10:00
7:30 PM,68.0,64.4,88,30.31,10.0,ENE,8.1,-,N/A,,Clear,60,2013-09-12 01:30:00
7:50 PM,68.0,62.6,83,30.32,10.0,ENE,9.2,-,N/A,,Clear,70,2013-09-12 01:50:00
8:10 PM,68.0,62.6,83,30.33,10.0,ENE,9.2,-,N/A,,Clear,70,2013-09-12 02:10:00
8:30 PM,66.2,62.6,88,30.34,10.0,ENE,9.2,-,N/A,,Clear,60,2013-09-12 02:30:00
8:50 PM,64.4,60.8,88,30.35,10.0,NE,9.2,-,N/A,,Clear,50,2013-09-12 02:50:00
9:10 PM,64.4,59.0,83,30.35,10.0,ENE,9.2,-,N/A,,Clear,60,2013-09-12 03:10:00
9:30 PM,62.6,57.2,82,30.36,10.0,NE,9.2,-,N/A,,Clear,50,2013-09-12 03:30:00
9:50 PM,62.6,57.2,82,30.37,10.0,ENE,5.8,-,N/A,,Clear,60,2013-09-12 03:50:00
10:10 PM,60.8,55.4,82,30.37,10.0,ENE,9.2,-,N/A,,Clear,70,2013-09-12 04:10:00
10:30 PM,59.0,55.4,88,30.37,10.0,ENE,8.1,-,N/A,,Clear,60,2013-09-12 04:30:00
10:50 PM,57.2,53.6,88,30.38,10.0,NE,6.9,-,N/A,,Clear,50,2013-09-12 04:50:00
11:10 PM,57.2,51.8,82,30.38,10.0,NE,8.1,-,N/A,,Clear,40,2013-09-12 05:10:00
11:30 PM,55.4,51.8,88,30.38,10.0,ENE,4.6,-,N/A,,Clear,60,2013-09-12 05:30:00
11:50 PM,53.6,48.2,82,30.38,10.0,NNE,3.5,-,N/A,,Clear,20,2013-09-12 05:50:00